Simultaneous Nadir Overpasses (SNOs) Predictions

Prediction of SNOs between GOES-17 and AQUA Satellite Orbit:

Table of predicted SNOs for the next 14.0 days since TLE Epoch: 12/12/2020
Index Date Time (GOES-17) GOES-17 Lat,Lon AQUA Lat,Lon Distance(km) Time Diff (sec)
1 12/12/2020 22:30:17 0.01,-137.22 0.80,-133.50 423.44 80
2 12/13/2020 10:48:52 -0.01,-137.22 0.31,-138.65 162.79 80
3 12/15/2020 10:39:20 0.00,-137.21 -0.31,-135.69 172.53 80
4 12/15/2020 22:58:04 -0.00,-137.21 -0.81,-140.88 418.58 80
5 12/17/2020 22:45:52 -0.01,-137.19 -0.19,-137.92 83.92 80
6 12/19/2020 22:36:20 -0.01,-137.17 0.44,-134.96 250.62 80
7 12/20/2020 10:54:55 0.00,-137.17 0.66,-140.11 335.83 80
8 12/22/2020 10:42:43 0.00,-137.15 0.02,-137.16 2.32 80
9 12/24/2020 10:33:11 0.01,-137.12 -0.62,-134.20 332.25 80
10 12/24/2020 22:51:54 -0.00,-137.11 -0.50,-139.39 259.27 80
